Вернуться в каталог

YINHE 2-06

АктивенСвязьLEO
NORAD 51951·PAYLOAD·🇨🇳 China
Это название спутника еще не подтверждено официальными источниками.

Запущен Mar 5, 2022 с Xichang Satellite Launch Center

Loading…

Ближайшие Пролёты (ближайшие 24 часа)

TLE

СвежийSource: Space-Track

Эпоха: Sep 14, 2026, 14:35 UTC

1 51951U 22023F   26257.60827433  .00012354  00000-0  48459-3 0  9993
2 51951  63.4529 329.5147 0135279 341.8205  17.8094 15.17971003251284

Отслеживайте YINHE 2-06 в реальном времени с AllMySat

Download on the App Store